| time (UTC) | temp F | wind direction | speed MPH | gust MPH | rain 1hr in | rain 24hr in | rain mn in | humidity % | barometer mb |
| 20260504220212 | 80 | 190 | 1.0 | 1.0 | 0.00 | 0.00 | 0.00 | 28 | 1014.6 |
| 20260504215708 | 81 | 185 | 1.0 | 1.0 | 0.00 | 0.00 | 0.00 | 28 | 1014.6 |
| 20260504215205 | 81 | 203 | 2.0 | 3.0 | 0.00 | 0.00 | 0.00 | 25 | 1014.6 |
| 20260504214701 | 81 | 227 | 0.0 | 1.0 | 0.00 | 0.00 | 0.00 | 26 | 1014.6 |
| 20260504214157 | 82 | 221 | 3.0 | 3.0 | 0.00 | 0.00 | 0.00 | 24 | 1014.5 |
| 20260504213654 | 81 | 272 | 1.0 | 2.0 | 0.00 | 0.00 | 0.00 | 26 | 1014.5 |
| 20260504213151 | 81 | 266 | 2.0 | 3.0 | 0.00 | 0.00 | 0.00 | 27 | 1014.3 |
| 20260504212647 | 81 | 167 | 1.0 | 2.0 | 0.00 | 0.00 | 0.00 | 27 | 1014.4 |
| 20260504212144 | 82 | 249 | 2.0 | 2.0 | 0.00 | 0.00 | 0.00 | 26 | 1014.4 |
| 20260504211642 | 80 | 289 | 3.0 | 4.0 | 0.00 | 0.00 | 0.00 | 28 | 1014.4 |
| 20260504211138 | 79 | 64 | 2.0 | 2.0 | 0.00 | 0.00 | 0.00 | 27 | 1014.4 |
| 20260504210636 | 80 | 167 | 3.0 | 3.0 | 0.00 | 0.00 | 0.00 | 27 | 1014.5 |
| 20260504210132 | 80 | 147 | 1.0 | 1.0 | 0.00 | 0.00 | 0.00 | 28 | 1014.4 |
| 20260504205629 | 80 | 154 | 5.0 | 6.0 | 0.00 | 0.00 | 0.00 | 30 | 1014.4 |
| 20260504205127 | 80 | 178 | 5.0 | 6.0 | 0.00 | 0.00 | 0.00 | 27 | 1014.7 |
| 20260504204625 | 81 | 156 | 3.0 | 3.0 | 0.00 | 0.00 | 0.00 | 27 | 1014.6 |
| 20260504204124 | 81 | 198 | 1.0 | 1.0 | 0.00 | 0.00 | 0.00 | 28 | 1014.7 |
| 20260504203622 | 80 | 225 | 2.0 | 2.0 | 0.00 | 0.00 | 0.00 | 30 | 1014.6 |
| 20260504203120 | 81 | 180 | 2.0 | 2.0 | 0.00 | 0.00 | 0.00 | 28 | 1014.6 |
| 20260504202620 | 81 | 190 | 4.0 | 6.0 | 0.00 | 0.00 | 0.00 | 28 | 1014.8 |
| 20260504202117 | 81 | 132 | 2.0 | 2.0 | 0.00 | 0.00 | 0.00 | 29 | 1014.9 |
| 20260504201614 | 81 | 52 | 1.0 | 2.0 | 0.00 | 0.00 | 0.00 | 29 | 1015.1 |
| 20260504201112 | 80 | 20 | 2.0 | 2.0 | 0.00 | 0.00 | 0.00 | 30 | 1014.9 |
| 20260504200609 | 80 | 182 | 1.0 | 1.0 | 0.00 | 0.00 | 0.00 | 31 | 1015.2 |
| 20260504200105 | 79 | 150 | 4.0 | 4.0 | 0.00 | 0.00 | 0.00 | 31 | 1015.3 |
| 20260504195601 | 79 | 177 | 5.0 | 6.0 | 0.00 | 0.00 | 0.00 | 33 | 1015.5 |
| 20260504195057 | 78 | 183 | 2.0 | 3.0 | 0.00 | 0.00 | 0.00 | 30 | 1015.4 |
| 20260504194554 | 79 | 167 | 4.0 | 6.0 | 0.00 | 0.00 | 0.00 | 30 | 1015.4 |
| 20260504194049 | 79 | 147 | 7.0 | 9.0 | 0.00 | 0.00 | 0.00 | 30 | 1015.3 |
| 20260504193546 | 79 | 136 | 5.0 | 6.0 | 0.00 | 0.00 | 0.00 | 31 | 1015.6 |
| 20260504193045 | 79 | 184 | 4.0 | 7.0 | 0.00 | 0.00 | 0.00 | 30 | 1015.7 |
| 20260504192543 | 79 | 260 | 2.0 | 2.0 | 0.00 | 0.00 | 0.00 | 31 | 1015.7 |
| 20260504192041 | 78 | 215 | 1.0 | 1.0 | 0.00 | 0.00 | 0.00 | 29 | 1015.9 |
| 20260504191538 | 78 | 157 | 4.0 | 6.0 | 0.00 | 0.00 | 0.00 | 32 | 1016.0 |
| 20260504191034 | 78 | 158 | 4.0 | 4.0 | 0.00 | 0.00 | 0.00 | 32 | 1016.0 |
| 20260504190531 | 78 | 106 | 4.0 | 4.0 | 0.00 | 0.00 | 0.00 | 34 | 1016.0 |
| 20260504190027 | 78 | 1 | 7.0 | 8.0 | 0.00 | 0.00 | 0.00 | 33 | 1016.2 |
| 20260504185524 | 78 | 63 | 4.0 | 4.0 | 0.00 | 0.00 | 0.00 | 32 | 1016.3 |
| 20260504185020 | 78 | 99 | 2.0 | 3.0 | 0.00 | 0.00 | 0.00 | 33 | 1016.4 |
| 20260504184516 | 79 | 77 | 2.0 | 3.0 | 0.00 | 0.00 | 0.00 | 31 | 1016.3 |
| 20260504184012 | 78 | 3 | 0.0 | 0.0 | 0.00 | 0.00 | 0.00 | 34 | 1016.7 |
| 20260504183509 | 78 | 224 | 5.0 | 7.0 | 0.00 | 0.00 | 0.00 | 30 | 1016.5 |
| 20260504183007 | 77 | 167 | 0.0 | 1.0 | 0.00 | 0.00 | 0.00 | 33 | 1016.7 |
| 20260504182503 | 77 | 89 | 5.0 | 6.0 | 0.00 | 0.00 | 0.00 | 32 | 1016.5 |
| 20260504182001 | 77 | 57 | 2.0 | 2.0 | 0.00 | 0.00 | 0.00 | 33 | 1016.5 |
| 20260504181457 | 77 | 57 | 4.0 | 4.0 | 0.00 | 0.00 | 0.00 | 33 | 1016.7 |
| 20260504180956 | 77 | 153 | 5.0 | 6.0 | 0.00 | 0.00 | 0.00 | 32 | 1016.5 |
| 20260504180455 | 77 | 128 | 6.0 | 7.0 | 0.00 | 0.00 | 0.00 | 34 | 1016.7 |
| 20260504175953 | 77 | 110 | 1.0 | 1.0 | 0.00 | 0.00 | 0.00 | 32 | 1016.7 |
| 20260504175450 | 77 | 137 | 4.0 | 4.0 | 0.00 | 0.00 | 0.00 | 35 | 1016.7 |
| 20260504174947 | 78 | 125 | 4.0 | 4.0 | 0.00 | 0.00 | 0.00 | 34 | 1016.9 |
| 20260504174445 | 77 | 6 | 1.0 | 1.0 | 0.00 | 0.00 | 0.00 | 34 | 1016.8 |
| 20260504173942 | 76 | 235 | 2.0 | 2.0 | 0.00 | 0.00 | 0.00 | 35 | 1017.1 |
| 20260504173438 | 76 | 186 | 5.0 | 7.0 | 0.00 | 0.00 | 0.00 | 35 | 1017.0 |
| 20260504172936 | 75 | 127 | 1.0 | 1.0 | 0.00 | 0.00 | 0.00 | 35 | 1017.0 |
| 20260504172431 | 77 | 105 | 6.0 | 7.0 | 0.00 | 0.00 | 0.00 | 33 | 1017.0 |
| 20260504171928 | 77 | 156 | 4.0 | 4.0 | 0.00 | 0.00 | 0.00 | 34 | 1017.1 |
| 20260504171425 | 77 | 96 | 0.0 | 1.0 | 0.00 | 0.00 | 0.00 | 35 | 1017.2 |
| 20260504170922 | 75 | 70 | 0.0 | 1.0 | 0.00 | 0.00 | 0.00 | 37 | 1017.3 |
| 20260504170418 | 75 | 174 | 1.0 | 1.0 | 0.00 | 0.00 | 0.00 | 36 | 1017.3 |
| 20260504160337 | 76 | 141 | 5.0 | 6.0 | 0.00 | 0.00 | 0.00 | 35 | 1018.2 |
| 20260504150802 | 74 | 135 | 2.0 | 2.0 | 0.00 | 0.00 | 0.00 | 39 | 1018.1 |
| 20260504150259 | 75 | 340 | 4.0 | 6.0 | 0.00 | 0.00 | 0.00 | 38 | 1018.3 |
| 20260504141229 | 72 | 83 | 0.0 | 0.0 | 0.00 | 0.00 | 0.00 | 48 | 1018.2 |
| 20260504140725 | 70 | 123 | 1.0 | 1.0 | 0.00 | 0.00 | 0.00 | 47 | 1018.3 |
| 20260504140221 | 69 | 106 | 1.0 | 1.0 | 0.00 | 0.00 | 0.00 | 51 | 1018.3 |
| 20260504130649 | 65 | 104 | 1.0 | 1.0 | 0.00 | 0.00 | 0.00 | 59 | 1018.3 |
| 20260504130146 | 64 | 122 | 1.0 | 1.0 | 0.00 | 0.00 | 0.00 | 63 | 1018.3 |
| 20260504120110 | 54 | 307 | 0.0 | 0.0 | 0.00 | 0.00 | 0.00 | 86 | 1018.2 |
| 20260504110538 | 47 | 305 | 0.0 | 0.0 | 0.00 | 0.00 | 0.00 | 93 | 1017.8 |
| 20260504100459 | 48 | 326 | 1.0 | 1.0 | 0.00 | 0.00 | 0.00 | 92 | 1017.7 |
| 20260504081852 | 50 | 327 | 0.0 | 0.0 | 0.00 | 0.00 | 0.00 | 86 | 1017.9 |
| 20260504081349 | 50 | 327 | 1.0 | 1.0 | 0.00 | 0.00 | 0.00 | 87 | 1018.1 |
| 20260504080844 | 50 | 327 | 1.0 | 1.0 | 0.00 | 0.00 | 0.00 | 86 | 1018.3 |
| 20260504080342 | 50 | 327 | 0.0 | 0.0 | 0.00 | 0.00 | 0.00 | 86 | 1018.4 |
| 20260504070309 | 50 | 275 | 0.0 | 0.0 | 0.00 | 0.00 | 0.00 | 88 | 1018.3 |
| 20260504060230 | 52 | 275 | 1.0 | 1.0 | 0.00 | 0.00 | 0.00 | 85 | 1018.6 |
| 20260504050657 | 54 | 275 | 0.0 | 0.0 | 0.00 | 0.00 | 0.00 | 82 | 1018.9 |
| 20260504050155 | 54 | 275 | 0.0 | 1.0 | 0.00 | 0.00 | 0.00 | 76 | 1018.7 |
| 20260504045652 | 53 | 274 | 0.0 | 0.0 | 0.00 | 0.00 | 0.00 | 79 | 1018.8 |
| 20260504045152 | 53 | 274 | 1.0 | 1.0 | 0.00 | 0.00 | 0.00 | 81 | 1019.1 |
| 20260504044650 | 53 | 274 | 1.0 | 1.0 | 0.00 | 0.00 | 0.00 | 82 | 1018.9 |
| 20260504044146 | 52 | 274 | 0.0 | 0.0 | 0.00 | 0.00 | 0.00 | 85 | 1018.8 |
| 20260504043643 | 53 | 274 | 0.0 | 0.0 | 0.00 | 0.00 | 0.00 | 84 | 1018.6 |
| 20260504043141 | 53 | 274 | 1.0 | 1.0 | 0.00 | 0.00 | 0.00 | 82 | 1018.6 |
| 20260504042638 | 53 | 274 | 1.0 | 1.0 | 0.00 | 0.00 | 0.00 | 81 | 1018.8 |
| 20260504042134 | 54 | 274 | 1.0 | 1.0 | 0.00 | 0.00 | 0.00 | 81 | 1018.5 |
| 20260504041630 | 53 | 274 | 0.0 | 0.0 | 0.00 | 0.00 | 0.00 | 81 | 1018.7 |
| 20260504041127 | 53 | 274 | 0.0 | 0.0 | 0.00 | 0.00 | 0.00 | 81 | 1018.6 |
| 20260504040624 | 53 | 274 | 0.0 | 0.0 | 0.00 | 0.00 | 0.00 | 82 | 1018.6 |
| 20260504040121 | 54 | 274 | 0.0 | 0.0 | 0.00 | 0.00 | 0.00 | 81 | 1018.6 |
| 20260504035618 | 55 | 274 | 0.0 | 0.0 | 0.00 | 0.00 | 0.00 | 79 | 1018.6 |
| 20260504035114 | 55 | 274 | 0.0 | 0.0 | 0.00 | 0.00 | 0.00 | 77 | 1018.7 |
| 20260504034612 | 54 | 274 | 1.0 | 1.0 | 0.00 | 0.00 | 0.00 | 77 | 1018.8 |
| 20260504034109 | 55 | 275 | 2.0 | 2.0 | 0.00 | 0.00 | 0.00 | 79 | 1018.6 |
| 20260504033607 | 55 | 288 | 0.0 | 1.0 | 0.00 | 0.00 | 0.00 | 79 | 1018.7 |
| 20260504033103 | 55 | 288 | 2.0 | 2.0 | 0.00 | 0.00 | 0.00 | 78 | 1018.7 |
| 20260504032600 | 55 | 289 | 0.0 | 1.0 | 0.00 | 0.00 | 0.00 | 72 | 1018.7 |
| 20260504032057 | 55 | 289 | 0.0 | 1.0 | 0.00 | 0.00 | 0.00 | 78 | 1018.5 |
| 20260504031554 | 55 | 289 | 0.0 | 0.0 | 0.00 | 0.00 | 0.00 | 75 | 1018.8 |
| 20260504031050 | 55 | 289 | 0.0 | 0.0 | 0.00 | 0.00 | 0.00 | 76 | 1018.6 |
| 20260504030548 | 55 | 289 | 0.0 | 1.0 | 0.00 | 0.00 | 0.00 | 75 | 1018.4 |
| 20260504030044 | 56 | 289 | 1.0 | 2.0 | 0.00 | 0.00 | 0.00 | 74 | 1018.6 |
| 20260504025541 | 56 | 290 | 0.0 | 0.0 | 0.00 | 0.00 | 0.00 | 73 | 1018.6 |
| 20260504025038 | 56 | 290 | 0.0 | 1.0 | 0.00 | 0.00 | 0.00 | 75 | 1018.6 |
| 20260504024535 | 56 | 291 | 0.0 | 1.0 | 0.00 | 0.00 | 0.00 | 76 | 1018.6 |
| 20260504024032 | 56 | 291 | 0.0 | 0.0 | 0.00 | 0.00 | 0.00 | 74 | 1018.5 |
| 20260504023528 | 57 | 291 | 0.0 | 0.0 | 0.00 | 0.00 | 0.00 | 71 | 1018.6 |
| 20260504023024 | 57 | 290 | 0.0 | 0.0 | 0.00 | 0.00 | 0.00 | 72 | 1018.6 |
| 20260504022520 | 57 | 291 | 0.0 | 0.0 | 0.00 | 0.00 | 0.00 | 69 | 1018.7 |
| 20260504022017 | 57 | 291 | 0.0 | 0.0 | 0.00 | 0.00 | 0.00 | 71 | 1018.6 |
| 20260504021515 | 57 | 291 | 0.0 | 0.0 | 0.00 | 0.00 | 0.00 | 73 | 1018.7 |
| 20260504021012 | 57 | 291 | 0.0 | 0.0 | 0.00 | 0.00 | 0.00 | 73 | 1018.4 |
| 20260504020508 | 57 | 291 | 0.0 | 0.0 | 0.00 | 0.00 | 0.00 | 72 | 1018.3 |
| 20260504020005 | 57 | 291 | 0.0 | 0.0 | 0.00 | 0.00 | 0.00 | 70 | 1018.3 |
| 20260504015501 | 58 | 291 | 0.0 | 0.0 | 0.00 | 0.00 | 0.00 | 69 | 1018.3 |
| 20260504014956 | 58 | 291 | 0.0 | 0.0 | 0.00 | 0.00 | 0.00 | 69 | 1018.2 |
| 20260504014453 | 59 | 291 | 0.0 | 0.0 | 0.00 | 0.00 | 0.00 | 69 | 1018.1 |
| 20260504013950 | 59 | 291 | 0.0 | 0.0 | 0.00 | 0.00 | 0.00 | 69 | 1018.1 |
| 20260504013449 | 59 | 291 | 0.0 | 1.0 | 0.00 | 0.00 | 0.00 | 66 | 1018.0 |
| 20260504012944 | 59 | 291 | 0.0 | 0.0 | 0.00 | 0.00 | 0.00 | 66 | 1017.9 |
| 20260504012443 | 60 | 294 | 0.0 | 0.0 | 0.00 | 0.00 | 0.00 | 65 | 1017.9 |
| 20260504011940 | 60 | 295 | 0.0 | 1.0 | 0.00 | 0.00 | 0.00 | 65 | 1017.8 |
| 20260504011436 | 61 | 299 | 0.0 | 1.0 | 0.00 | 0.00 | 0.00 | 64 | 1017.7 |
| 20260504010932 | 63 | 327 | 0.0 | 0.0 | 0.00 | 0.00 | 0.00 | 59 | 1017.6 |
| 20260504010428 | 64 | 327 | 0.0 | 0.0 | 0.00 | 0.00 | 0.00 | 52 | 1017.7 |
| 20260504005925 | 65 | 328 | 1.0 | 1.0 | 0.00 | 0.00 | 0.00 | 45 | 1017.6 |
| 20260504005421 | 66 | 324 | 0.0 | 0.0 | 0.00 | 0.00 | 0.00 | 44 | 1017.6 |
| 20260504004919 | 66 | 328 | 1.0 | 2.0 | 0.00 | 0.00 | 0.00 | 43 | 1017.5 |
| 20260504004417 | 66 | 297 | 1.0 | 1.0 | 0.00 | 0.00 | 0.00 | 43 | 1017.5 |
| 20260504003913 | 67 | 322 | 0.0 | 1.0 | 0.00 | 0.00 | 0.00 | 42 | 1017.6 |
| 20260504003410 | 67 | 324 | 2.0 | 2.0 | 0.00 | 0.00 | 0.00 | 40 | 1017.5 |
| 20260504002906 | 68 | 309 | 1.0 | 2.0 | 0.00 | 0.00 | 0.00 | 42 | 1017.3 |
| 20260504002403 | 69 | 324 | 0.0 | 1.0 | 0.00 | 0.00 | 0.00 | 39 | 1017.3 |
| 20260504001901 | 69 | 332 | 1.0 | 2.0 | 0.00 | 0.00 | 0.00 | 36 | 1017.3 |
| 20260504001358 | 69 | 342 | 1.0 | 2.0 | 0.00 | 0.00 | 0.00 | 36 | 1017.2 |
| 20260504000855 | 70 | 338 | 1.0 | 1.0 | 0.00 | 0.00 | 0.00 | 37 | 1017.1 |
| 20260504000354 | 70 | 351 | 2.0 | 2.0 | 0.00 | 0.00 | 0.00 | 35 | 1017.1 |
| 20260503235849 | 70 | 341 | 1.0 | 2.0 | 0.00 | 0.00 | 0.00 | 37 | 1016.9 |
| 20260503235347 | 71 | 349 | 1.0 | 1.0 | 0.00 | 0.00 | 0.00 | 36 | 1017.1 |
| 20260503234844 | 71 | 350 | 3.0 | 3.0 | 0.00 | 0.00 | 0.00 | 34 | 1016.9 |
| 20260503234342 | 71 | 12 | 2.0 | 2.0 | 0.00 | 0.00 | 0.00 | 35 | 1016.9 |
| 20260503233839 | 72 | 13 | 2.0 | 2.0 | 0.00 | 0.00 | 0.00 | 34 | 1016.9 |
| 20260503233335 | 73 | 5 | 3.0 | 3.0 | 0.00 | 0.00 | 0.00 | 32 | 1016.9 |
| 20260503232832 | 74 | 10 | 2.0 | 3.0 | 0.00 | 0.00 | 0.00 | 34 | 1016.9 |
| 20260503232329 | 74 | 328 | 2.0 | 2.0 | 0.00 | 0.00 | 0.00 | 29 | 1017.0 |
| 20260503231827 | 74 | 357 | 2.0 | 3.0 | 0.00 | 0.00 | 0.00 | 30 | 1016.9 |
| 20260503231324 | 74 | 30 | 2.0 | 2.0 | 0.00 | 0.00 | 0.00 | 29 | 1017.0 |
| 20260503230820 | 74 | 341 | 2.0 | 3.0 | 0.00 | 0.00 | 0.00 | 30 | 1017.1 |
| 20260503230317 | 74 | 358 | 4.0 | 4.0 | 0.00 | 0.00 | 0.00 | 29 | 1017.0 |
| 20260503225815 | 74 | 355 | 5.0 | 6.0 | 0.00 | 0.00 | 0.00 | 30 | 1017.1 |
| 20260503225310 | 75 | 4 | 3.0 | 4.0 | 0.00 | 0.00 | 0.00 | 29 | 1017.0 |
| 20260503224807 | 75 | 346 | 3.0 | 3.0 | 0.00 | 0.00 | 0.00 | 30 | 1017.0 |
| 20260503224304 | 76 | 354 | 1.0 | 1.0 | 0.00 | 0.00 | 0.00 | 30 | 1017.0 |
| 20260503223802 | 75 | 292 | 1.0 | 2.0 | 0.00 | 0.00 | 0.00 | 28 | 1017.0 |
| 20260503223259 | 75 | 347 | 5.0 | 6.0 | 0.00 | 0.00 | 0.00 | 29 | 1017.0 |
| 20260503222755 | 76 | 12 | 2.0 | 3.0 | 0.00 | 0.00 | 0.00 | 28 | 1017.0 |
| 20260503222253 | 76 | 321 | 2.0 | 3.0 | 0.00 | 0.00 | 0.00 | 29 | 1017.1 |
| 20260503221751 | 76 | 339 | 4.0 | 4.0 | 0.00 | 0.00 | 0.00 | 28 | 1017.1 |
| 20260503221249 | 75 | 319 | 4.0 | 6.0 | 0.00 | 0.00 | 0.00 | 29 | 1016.9 |
| 20260503220745 | 76 | 31 | 3.0 | 3.0 | 0.00 | 0.00 | 0.00 | 30 | 1017.2 |